Weather History for LIED - October, 2012

Change the Weather History Date:

Thursday, October 25, 2012

  Actual Average Record
Temperature  
Mean Temperature 66 °F -  
Max Temperature 78 °F 66 °F 82 °F (1999)
Min Temperature 53 °F 48 °F 50 °F (1996)
Growing Degree Days 16 (Base 50)    
Moisture  
Dew Point 57 °F    
Average Humidity 78    
Maximum Humidity 94    
Minimum Humidity 49    
Precipitation  
Precipitation 0.00 in 0.08 in - ()
Sea Level Pressure  
Sea Level Pressure 29.89 in    
Wind  
Wind Speed 5 mph ()    
Max Wind Speed 14 mph    
Max Gust Speed -    
Visibility 7.2 miles    
Events      
Averages and records for this station are not official NWS values.
T = Trace of Precipitation, MM = Missing Value Source: Averaged Metar Reports

Daily Weather History Graph

Daily Weather History Graph

Search for Another Location

Airport or City:

Trip Planner

Search our weather history database for the weather conditions in past years. The results will help you decide how hot, cold, wet, or windy it might be!

Date:

Astronomy

Oct. 25, 2012 Rise Set
Actual Time 7:44 AM CEST 6:31 PM CEST
Civil Twilight 7:17 AM CEST 6:58 PM CEST
Nautical Twilight 6:45 AM CEST 7:29 PM CEST
Astronomical Twilight 6:14 AM CEST 8:00 PM CEST
Moon 4:07 PM CEST (10/25) 3:25 AM CEST (10/25)
Length of Visible Light 11h 41m
Length of Day
10h 46m
Waxing Gibbous, 82% of the Moon is Illuminated
Oct 25
Waxing Gibbous
Oct 29
Full
Nov 7
Last Quarter
Nov 13
New
Nov 20
First Quarter

Hourly Weather History & Observations

Time (CEST) Temp. Dew Point Humidity Pressure Visibility Wind Dir Wind Speed Gust Speed Precip Events Conditions
12:55 AM 59.0 °F 55.4 °F 88% 29.92 in 6.2 mi North 3.5 mph - N/A   Partly Cloudy
1:55 AM 59.0 °F 53.6 °F 82% 29.89 in - North 5.8 mph - N/A   Clear
2:00 AM 58 °F 54 °F 84% 29.92 in 9 mi North 5.8 mph - -  
2:55 AM 57.2 °F 53.6 °F 88% 29.89 in 6.2 mi West 2.3 mph - N/A   Partly Cloudy
3:55 AM 57.2 °F 53.6 °F 88% 29.92 in 6.2 mi NNW 2.3 mph - N/A   Partly Cloudy
4:55 AM 55.4 °F 50.0 °F 82% 29.89 in 6.2 mi WNW 3.5 mph - N/A   Partly Cloudy
5:00 AM 55 °F 51 °F 81% 29.92 in 7 mi WNW 3.5 mph - -   Scattered Clouds
5:55 AM 55.4 °F 50.0 °F 82% 29.92 in 6.2 mi NNW 4.6 mph - N/A   Partly Cloudy
6:55 AM 55.4 °F 50.0 °F 82% 29.89 in 6.2 mi ENE 4.6 mph - N/A   Partly Cloudy
8:00 AM 53 °F 49 °F 80% 29.92 in 7 mi WNW 4.6 mph - -   Scattered Clouds
8:55 AM 55.4 °F 50.0 °F 82% 29.92 in 6.2 mi NW 3.5 mph - N/A   Partly Cloudy
9:55 AM 59.0 °F 53.6 °F 82% 29.92 in 6.2 mi North 2.3 mph - N/A   Partly Cloudy
10:55 AM 66.2 °F 59.0 °F 78% 29.92 in 6.2 mi West 4.6 mph - N/A   Partly Cloudy
11:00 AM 66 °F 59 °F 72% 29.93 in 12 mi West 4.6 mph - -   Scattered Clouds
11:55 AM 73.4 °F 60.8 °F 65% 29.92 in 6.2 mi SSE 4.6 mph - N/A   Partly Cloudy
12:55 PM 75.2 °F 57.2 °F 53% 29.89 in 6.2 mi South 6.9 mph - N/A   Scattered Clouds
1:55 PM 75.2 °F 59.0 °F 57% 29.86 in 6.2 mi South 9.2 mph - N/A   Scattered Clouds
2:00 PM 75 °F 59 °F 49% 29.88 in 12 mi South 9.2 mph - -   Mostly Cloudy
3:55 PM 77.0 °F 60.8 °F 57% 29.86 in 6.2 mi SE 11.5 mph - N/A   Scattered Clouds
5:00 PM 75 °F 63 °F 57% 29.86 in 12 mi SSE 13.8 mph - -   Partly Cloudy
5:55 PM 71.6 °F 64.4 °F 78% 29.83 in 6.2 mi SSE 13.8 mph - N/A   Scattered Clouds
6:55 PM 68.0 °F 62.6 °F 83% 29.86 in 6.2 mi SSE 9.2 mph - N/A   Scattered Clouds
7:55 PM 68.0 °F 64.4 °F 88% 29.86 in 6.2 mi SSE 5.8 mph - N/A   Partly Cloudy
8:00 PM 68 °F 64 °F 83% 29.86 in 9 mi SSE 5.8 mph - -   Scattered Clouds
9:55 PM 62.6 °F 60.8 °F 94% 29.86 in 6.2 mi ESE 3.5 mph - N/A   Partly Cloudy
10:55 PM 62.6 °F 59.0 °F 88% 29.86 in 6.2 mi ESE 5.8 mph - N/A   Partly Cloudy
11:00 PM 63 °F 59 °F 84% 29.86 in 9 mi ESE 5.8 mph - -   Scattered Clouds
11:55 PM 60.8 °F 57.2 °F 88% 29.86 in 6.2 mi East 6.9 mph - N/A   Partly Cloudy